Location: Clanezzo
(45.7500°N, 9.6000°E)
Time: 03:48:21
(UTC+00:00)

Cosmos 2151 Rocket - Pass Details

Date: 12 May 2021
Orbit: 617 x 643 km, 82.5° (Epoch: 18 June)

Event Time Altitude Azimuth Distance (km) Brightness Sun altitude
Rises 23:38:51 0° 354° (N) 2,959 8.3 -25.7°
Reaches altitude 10° 23:41:09 10° 358° (N) 2,042 7.2 -25.6°
Enters shadow 23:45:34 61° 73° (ENE) 727 3.9 -25.6°
